[[{"header":{"parameterUnit":"m.s-1","parameterCategory":1,"la1":30.2991,"la2":30.254,"lo1":-89.0895,"lo2":-89.0444,"dy":0.0017,"dx":0.0017,"nx":28,"ny":28,"refTime":"2024-09-29T03:00:00:Z","depth":0,"parameterNumber":2,"parameterNumberName":"U-component_of_WINDS"},"data":[0,0,0,0,0,0,0,0,0,0,0,0,0,0,0,0,0,0,0,0,0,0,0,0,0,0,0,0,0,0,0,0,0,0,0,0,0,0,0,0,0,0,0,0,0,0,0,0,0,0,0,0,0,0,0,0,0,0,3.4649,3.465,0,3.4794,3.4796,3.4798,3.4718,3.4714,3.471,3.4706,3.4862,3.487,3.4878,0,0,0,0,0,0,0,0,0,0,0,0,0,3.4308,3.4314,3.4649,3.465,3.4652,3.4794,3.4796,3.4798,3.4719,3.4714,3.4709,3.4704,3.486,3.4869,3.4879,0,0,0,0,0,0,0,0,0,0,0,0,0,3.4455,3.4317,3.4648,3.4629,3.4629,3.4794,3.4796,3.4799,3.472,3.4714,3.4708,3.4702,3.4857,3.4868,3.488,3.5073,0,0,3.4916,3.4921,0,0,0,0,0,0,0,0,3.4447,3.4468,3.463,3.4631,3.4631,3.4732,3.4733,3.4891,3.4721,3.4686,3.4706,3.4699,3.4824,3.4838,3.4879,3.5081,3.5087,3.4917,3.4924,3.4929,3.4933,0,0,0,0,0,0,0,3.4437,3.4461,3.4706,3.4633,3.4633,3.4616,3.463,3.4763,3.4787,3.4688,3.4683,3.4701,3.4823,3.4868,3.4882,3.509,3.4917,3.4927,3.4935,3.4939,3.5458,3.5465,0,0,0,0,0,0,3.4427,3.4453,3.4702,3.4711,3.4522,3.4627,3.4643,3.4706,3.4785,3.4792,3.4706,3.4696,3.4851,3.4868,3.4887,3.5119,3.4929,3.494,3.4947,3.5452,3.546,3.5467,0,0,0,0,0,0,3.442,3.445,3.4696,3.4581,3.461,3.4639,3.471,3.4712,3.4756,3.4798,3.4803,3.4746,3.4847,3.4871,3.5027,3.5124,3.4946,3.4956,3.5444,3.5454,3.5463,3.5585,0,0,0,0,0,0,3.441,3.4448,3.452,3.4583,3.4617,3.4832,3.4716,3.4719,3.4776,3.4765,3.4838,3.4844,3.4844,3.501,3.5039,3.5137,3.4966,3.5435,3.5448,3.546,3.5573,3.5598,3.562,0,0,0,0,0,3.4398,3.455,3.4524,3.4554,3.4707,3.4837,3.4857,3.4852,3.4784,3.4858,3.4885,3.4842,3.5108,3.5027,3.5059,3.5162,3.5429,3.5445,3.5459,3.5562,3.5593,3.5619,0,0,0,0,0,0,3.45,3.4558,3.453,3.4705,3.4767,3.4824,3.4916,3.4885,3.4968,3.4955,3.4947,3.4964,3.5127,3.516,3.5068,3.5354,3.5259,3.5281,3.5326,3.5356,3.5379,3.5368,3.4976,0,0,0,0,0,3.4542,3.4641,3.4687,3.4838,3.4869,3.4888,3.4944,3.4935,3.4999,3.5025,3.5064,3.513,3.5229,3.5294,3.5387,3.5577,3.5593,3.5664,3.5687,3.5706,3.5726,3.583,3.5862,3.5516,3.5516,3.5516,0,0,3.4632,3.4675,3.4739,3.4859,3.4905,3.501,3.4911,3.5025,3.5103,3.5043,3.5193,3.5224,3.5298,3.5472,3.5551,3.5504,3.5825,3.5726,3.5741,3.575,3.5849,3.5882,3.5911,3.5527,3.5525,3.5523,0,0,3.4848,3.489,3.502,3.5069,3.5139,3.5151,3.5182,3.5244,3.5262,3.5411,3.5369,3.5463,3.5633,3.5687,3.5737,3.5974,3.5938,3.6005,3.6128,3.623,3.6257,3.6281,3.6367,3.6397,3.6024,3.6024,3.6024,0,3.495,3.5103,3.5092,3.521,3.5265,3.5213,3.5346,3.5395,3.5494,3.5534,3.548,3.5692,3.5738,3.5924,3.5982,3.6024,3.6061,3.5996,3.6254,3.6278,3.63,3.6382,3.6414,3.6032,3.6031,3.603,3.6029,0,3.5227,3.5334,3.5431,3.5525,3.5591,3.5716,3.5726,3.5794,3.5779,3.5797,3.5951,3.6004,3.6107,3.6151,3.6138,3.6337,3.6306,3.6253,3.6158,3.6341,3.6418,3.6449,3.6043,3.604,3.6038,3.6036,0,0,3.5511,3.5596,3.5633,3.5675,3.575,3.5833,3.5957,3.6056,3.6115,3.6186,3.629,3.6435,3.6387,3.6444,3.6437,3.6526,3.6711,3.6462,3.6464,3.6508,3.6935,3.6974,3.701,3.6688,3.6693,3.6698,3.6929,0,3.5732,3.5945,3.5939,3.6138,3.6238,3.6191,3.6299,3.6358,3.6378,3.6467,3.649,3.6593,3.6522,3.6556,3.6642,3.667,3.6797,3.6654,3.6787,3.6792,3.677,3.705,3.7092,3.7307,3.6959,3.6964,3.6967,0,3.6018,3.6096,3.6305,3.6365,3.6407,3.6504,3.6594,3.6679,3.6746,3.6754,3.6818,3.6797,3.6924,3.6825,3.7002,3.6905,3.6959,3.6982,3.699,3.7003,3.6891,3.7072,3.7376,3.7408,3.7014,3.7011,3.7007,0,3.6205,3.6362,3.6508,3.6545,3.6619,3.6689,3.6723,3.6783,3.6843,3.6923,3.6962,3.7057,3.7109,3.7184,3.719,3.7117,3.737,3.727,3.7382,3.7382,3.7438,3.7434,3.7756,3.7472,3.7472,3.7471,3.747,0,3.6453,3.6583,3.6592,3.6682,3.6827,3.6819,3.6964,3.6992,3.7046,3.7142,3.7108,3.72,3.7201,3.7296,3.7302,3.7448,3.7472,3.7484,3.7484,3.7488,3.7486,3.7524,3.7509,3.748,3.7478,3.7476,3.7475,0,3.6687,3.6698,3.6853,3.691,3.6927,3.7032,3.7081,3.7168,3.7185,3.7307,3.7335,3.7363,3.7472,3.7485,3.7613,3.7617,3.7794,3.7778,3.777,3.7768,3.788,3.7869,3.8237,3.8285,3.7969,3.7972,3.7975,0,3.6844,3.6943,3.701,3.707,3.7108,3.7206,3.7267,3.7264,3.7329,3.7412,3.749,3.7595,3.7678,3.7856,3.7889,3.7987,3.7973,3.8096,3.7988,3.7989,3.7977,3.7971,3.7981,3.8117,3.812,3.8123,3.8125,0,3.7123,3.7124,3.7211,3.7301,3.7374,3.7445,3.7512,3.7564,3.757,3.7645,3.7755,3.782,3.795,3.8055,3.8152,3.819,3.8161,3.8159,3.819,3.8195,3.8187,3.8193,3.7828,3.815,3.8148,3.8146,3.8145,3.8144,3.7324,3.741,3.747,3.7569,3.7618,3.7682,3.7766,3.7792,3.7883,3.7987,3.798,3.8102,3.8168,3.8294,3.8339,3.8436,3.8396,3.8441,3.8453,3.8464,3.8476,3.817,3.8454,3.8453,3.8452,3.8452,3.8451,0,3.7602,3.7638,3.7729,3.7823,3.7901,3.7863,3.7935,3.8004,3.8111,3.8173,3.8256,3.8383,3.8486,3.8527,3.8628,3.8698,3.8687,3.8724,3.872,3.8729,3.8505,3.8468,3.8732,3.8732,3.8732,3.8732,3.8732,3.8731,3.7756,3.7899,3.7907,3.8075,3.8111,3.8228,3.8272,3.8332,3.8381,3.8524,3.8608,3.8633,3.8688,3.8793,3.8886,3.8895,3.8935,3.8979,3.8983,3.8773,3.8745,3.8718,3.8683,3.8988,3.8988,3.9199,3.9201,3.9203]},{"header":{"parameterUnit":"m.s-1","parameterCategory":1,"la1":30.2991,"la2":30.254,"lo1":-89.0895,"lo2":-89.0444,"dy":0.0017,"dx":0.0017,"nx":28,"ny":28,"refTime":"2024-09-29T03:00:00:Z","depth":0,"parameterNumber":3,"parameterNumberName":"V-component_of_WINDS"},"data":[0,0,0,0,0,0,0,0,0,0,0,0,0,0,0,0,0,0,0,0,0,0,0,0,0,0,0,0,0,0,0,0,0,0,0,0,0,0,0,0,0,0,0,0,0,0,0,0,0,0,0,0,0,0,0,0,0,0,2.6067,2.6068,0,2.616,2.6161,2.6163,2.6133,2.6131,2.6129,2.6128,2.6225,2.623,2.6234,0,0,0,0,0,0,0,0,0,0,0,0,0,2.5863,2.5867,2.6067,2.6068,2.6069,2.616,2.6161,2.6163,2.6134,2.6131,2.6129,2.6127,2.6224,2.6229,2.6234,0,0,0,0,0,0,0,0,0,0,0,0,0,2.5954,2.5869,2.6066,2.6065,2.6066,2.616,2.6162,2.6163,2.6134,2.6131,2.6128,2.6126,2.6222,2.6229,2.6235,2.6336,0,0,2.6256,2.6259,0,0,0,0,0,0,0,0,2.5949,2.5961,2.6064,2.6066,2.6067,2.6132,2.6126,2.6221,2.6135,2.6109,2.6127,2.6124,2.6197,2.6205,2.623,2.6341,2.6345,2.6256,2.626,2.6263,2.6265,0,0,0,0,0,0,0,2.5943,2.5957,2.6104,2.6066,2.6067,2.6061,2.607,2.6144,2.6168,2.6111,2.6109,2.612,2.6197,2.6223,2.6232,2.6346,2.6256,2.6262,2.6266,2.6269,2.6545,2.6548,0,0,0,0,0,0,2.5935,2.5952,2.6101,2.6106,2.5999,2.6067,2.6077,2.6114,2.6167,2.6173,2.6123,2.6118,2.6213,2.6224,2.6235,2.6357,2.6263,2.6269,2.6273,2.6541,2.6545,2.6549,0,0,0,0,0,0,2.5931,2.5949,2.6097,2.6029,2.6047,2.6073,2.6115,2.6118,2.6144,2.6176,2.6181,2.6145,2.6211,2.6226,2.6311,2.636,2.6272,2.6278,2.6537,2.6543,2.6547,2.6601,0,0,0,0,0,0,2.5925,2.5948,2.5986,2.603,2.6051,2.6171,2.6118,2.6122,2.6155,2.6151,2.6199,2.6204,2.621,2.6301,2.6318,2.6367,2.6284,2.6533,2.654,2.6546,2.6595,2.6607,2.6618,0,0,0,0,0,2.5918,2.5998,2.5988,2.6006,2.6099,2.6174,2.6186,2.6192,2.6159,2.6198,2.6219,2.6202,2.6351,2.631,2.6329,2.6381,2.653,2.6538,2.6545,2.659,2.6605,2.6617,0,0,0,0,0,0,2.596,2.6004,2.5993,2.6089,2.6128,2.6169,2.6219,2.6207,2.6256,2.625,2.6255,2.6266,2.6354,2.6376,2.6329,2.6481,2.6436,2.6448,2.6464,2.6478,2.6489,2.6483,2.6289,0,0,0,0,0,2.598,2.6036,2.6072,2.6153,2.6173,2.6193,2.6225,2.6226,2.6267,2.6283,2.631,2.6351,2.6407,2.6443,2.6497,2.6598,2.6608,2.6643,2.6654,2.6663,2.6673,2.6728,2.6744,2.6574,2.6573,2.6573,0,0,2.6023,2.6053,2.6089,2.6162,2.6192,2.6251,2.6207,2.6271,2.6315,2.6293,2.6375,2.6396,2.6442,2.6535,2.6578,2.6556,2.6722,2.6673,2.668,2.6685,2.6738,2.6754,2.6768,2.6579,2.6578,2.6577,0,0,2.613,2.6159,2.623,2.6261,2.6307,2.6319,2.6336,2.6379,2.6392,2.6474,2.6459,2.6511,2.6608,2.6641,2.667,2.6789,2.6776,2.6807,2.6866,2.692,2.6933,2.6945,2.6988,2.7003,2.6816,2.6816,2.6817,0,2.6178,2.6265,2.6268,2.6334,2.6366,2.6348,2.6421,2.645,2.6512,2.6535,2.6509,2.663,2.6659,2.676,2.6789,2.6813,2.6833,2.6802,2.6931,2.6943,2.6954,2.6995,2.7011,2.682,2.682,2.6819,2.6819,0,2.6322,2.6383,2.6434,2.6493,2.6532,2.66,2.6614,2.6652,2.6649,2.6664,2.6748,2.6783,2.6843,2.6866,2.6864,2.6967,2.6952,2.6929,2.6884,2.6974,2.7013,2.7028,2.6825,2.6824,2.6823,2.6822,0,0,2.646,2.6518,2.6537,2.6563,2.6612,2.666,2.6727,2.6785,2.6818,2.6861,2.6918,2.6999,2.6978,2.7011,2.7013,2.7059,2.7152,2.703,2.7031,2.7052,2.7268,2.7286,2.7304,2.7143,2.7146,2.7148,2.7264,0,2.6572,2.669,2.6694,2.6802,2.6859,2.6842,2.6901,2.6937,2.6953,2.7003,2.702,2.7078,2.7045,2.7065,2.7111,2.7131,2.7196,2.7123,2.7197,2.7199,2.7187,2.7324,2.7344,2.7452,2.728,2.7282,2.7284,0,2.6719,2.6765,2.6879,2.6919,2.6943,2.6996,2.7049,2.7097,2.7138,2.7146,2.7183,2.7177,2.7247,2.7199,2.7294,2.7245,2.7275,2.729,2.7294,2.7302,2.7248,2.7337,2.7487,2.7503,2.7308,2.7306,2.7304,0,2.6809,2.6899,2.6979,2.7002,2.7051,2.7089,2.7111,2.7149,2.7183,2.723,2.7252,2.7306,2.7336,2.7379,2.7388,2.7352,2.7484,2.7437,2.7493,2.7493,2.7523,2.7521,2.768,2.7541,2.7541,2.754,2.754,0,2.6934,2.7005,2.702,2.7069,2.7148,2.7151,2.7229,2.7248,2.7282,2.7335,2.7324,2.7374,2.7383,2.7435,2.7442,2.7521,2.7534,2.7543,2.7545,2.7545,2.7544,2.7566,2.7559,2.7545,2.7544,2.7543,2.7542,0,2.7048,2.7061,2.7147,2.7186,2.7197,2.7253,2.7287,2.7334,2.7348,2.7415,2.7431,2.7453,2.7514,2.7527,2.7599,2.7604,2.7697,2.7691,2.7683,2.7683,2.774,2.7734,2.7919,2.7944,2.7787,2.7789,2.779,0,2.7128,2.7181,2.7226,2.726,2.7284,2.7339,2.7374,2.738,2.7416,2.7467,2.7508,2.7567,2.7615,2.7713,2.7736,2.7791,2.7786,2.7847,2.7794,2.7793,2.7788,2.7785,2.7791,2.7857,2.7859,2.786,2.7862,0,2.7268,2.7272,2.7322,2.7375,2.7416,2.7458,2.7498,2.7527,2.7538,2.758,2.7641,2.7678,2.7752,2.7811,2.7866,2.7889,2.7878,2.7878,2.7894,2.7895,2.7889,2.7894,2.7712,2.7874,2.7873,2.7872,2.7871,2.787,2.7368,2.7415,2.7453,2.7509,2.754,2.7577,2.7623,2.7642,2.7694,2.7753,2.7753,2.7821,2.786,2.7933,2.7959,2.8012,2.7993,2.8017,2.8023,2.8029,2.8034,2.788,2.8022,2.8022,2.8022,2.8021,2.8021,0,2.7508,2.7531,2.7583,2.7639,2.7683,2.7667,2.771,2.7749,2.7808,2.7845,2.7892,2.7963,2.802,2.8047,2.8104,2.8141,2.8137,2.8156,2.8154,2.8159,2.8048,2.8028,2.8158,2.8158,2.8158,2.8158,2.8158,2.8158,2.7586,2.7665,2.7673,2.7766,2.7789,2.7854,2.7881,2.7915,2.7945,2.8024,2.8071,2.8088,2.8121,2.818,2.8232,2.8238,2.826,2.8281,2.8286,2.8181,2.8167,2.8154,2.8136,2.8286,2.8286,2.8393,2.8394,2.8395]}]]